www.pogodaiklimat.ru
ПОГОДА в Каламате
Время
(UTC), дата
18 15.11
21 15.11
00 16.11
03 16.11
06 16.11
09 16.11
12 16.11
15 16.11
18 16.11
21 16.11
00 17.11
03 17.11
06 17.11
09 17.11
12 17.11
15 17.11
18 17.11
21 17.11
00 18.11
03 18.11
06 18.11
09 18.11
12 18.11
15 18.11
18 18.11
21 18.11
00 19.11
03 19.11
06 19.11
09 19.11
12 19.11
15 19.11
18 19.11
21 19.11
00 20.11
03 20.11
06 20.11
09 20.11
12 20.11
15 20.11
18 20.11
21 20.11
00 21.11
03 21.11
06 21.11
09 21.11
12 21.11
15 21.11
18 21.11
21 21.11
00 22.11
03 22.11
06 22.11
12 22.11
15 22.11
Ветер
(напр.,м/с)
Видим. Явления Облачность Т
(С)
Тd
(С)
f
(%)
Тe
(С)
Тes
(С)
Комфортность P
(гПа)
Po
(гПа)
Тmin
(С)
Tmax
(С)
R
(мм)
R24
(мм)
S
(см)
штиль 0
{2}
10 км 4/3 600 м
[Cu med, cong Ac lent]
+14.8 +13.0 89 +14 +14 тепло 1019.9 1018.9 +21.8
штиль 0
{3}
10 км 3/1 600 м
[Cu hum Ac lent]
+13.0 +11.4 90 +12 +12 тепло 1020.9 1019.9
штиль 0
{4}
10 км 1/1 600 м
[Cu hum]
+12.8 +11.1 89 +12 +12 тепло 1021.1 1020.1
штиль 0
{4}
10 км 1/1 600 м
[Cu hum]
+11.6 +10.1 91 +11 +11 тепло 1020.5 1019.5
СЗ 2
{3}
2000 м дымка 4/0
[Ci fib]
+12.0 +10.3 89 +11 +11 тепло 1020.6 1019.6 +11.2 174
штиль 0
{3}
4000 м дымка 9/0 2000 м
[Ac trans Cs]
+19.4 +11.8 61 +20 +25 тепло 1021.2 1020.2
штиль 0
{4}
10 км 9/0 2000 м
[Ac und Cs]
+22.8 +10.6 46 +25 +30 комфорт 1018.8 1017.9
штиль 0
{2}
10 км 9/0 2000 м
[Ac und Cs]
+20.2 +13.1 64 +22 +22 комфорт 1018.4 1017.5
СЗ 2
{3}
10 км 5/0 2000 м
[Ac und Ci]
+15.0 +12.6 86 +15 +15 тепло 1018.2 1017.2 +23.7
СЗ 3
{4}
10 км 9/0 2000 м
[Ac trans Cs]
+14.2 +11.1 82 +13 +13 тепло 1017.8 1016.8
СЗ 2
{4}
10 км 9/0 2000 м
[Ac trans Cs]
+13.2 +10.0 81 +12 +12 тепло 1017.4 1016.4
СЗ 2
{3}
10 км 8/0
[Cs]
+12.2 +9.6 84 +11 +11 тепло 1016.8 1015.8
СЗ 3
{4}
4000 м дымка 9/0 2000 м
[Ac trans Cs]
+12.2 +9.2 82 +11 +11 тепло 1017.4 1016.4 +11.9 174
С 3
{5}
4000 м дымка 8/1 750 м
[Cu med, cong Ac trans Cs]
+20.2 +11.0 55 +22 +24 комфорт 1017.4 1016.5
штиль 0
{5}
10 км 8/1 900 м
[Cu med, cong Ac trans Ci fib]
+23.2 +9.5 42 +25 +29 комфорт 1015.9 1015.0
штиль 0
{3}
10 км 8/4 900 м
[Cu med, cong Ac trans Ci fib]
+20.4 +12.1 59 +22 +22 комфорт 1015.4 1014.5
штиль 0
{3}
10 км 8/4 900 м
[Cu med, cong Ac trans Ci fib]
+14.8 +11.5 81 +15 +15 тепло 1016.4 1015.4 +23.3
С 3
{5}
10 км слаб. дождь 9/8 600 м
[Cu Sc Ac inh]
+15.2 +12.2 82 +15 +15 тепло 1016.8 1015.8
штиль 0
{5}
10 км слаб. дождь 9/8 600 м
[Cu Sc Ac inh]
+13.8 +12.5 92 +13 +13 тепло 1016.8 1015.8 2

{3}
н/о н/о +13.3 +12.0 92 1016.7 1016.1
штиль 0
{4}
1000 м дымка 5/1 900 м
[Cu hum Ac trans]
+13.0 +11.8 92 +12 +13 тепло 1017.9 1016.9 +12.6 2.3 174
СЗ 2
{5}
2000 м гроза, ливневой дождь 9/5 540 м
[Cb cap Ac As]
+16.4 +14.4 88 +16 +18 тепло 1019.2 1018.2
штиль 0
{4}
3000 м мгла {гроза, дождь} 9/5 750 м
[Cu Sc Ac As]
+19.4 +15.6 79 +21 +23 комфорт 1018.5 1017.5 3
штиль 0
{3}
10 км 4/1 600 м
[Cu med, cong Ac trans]
+19.4 +14.3 72 +21 +21 комфорт 1018.7 1017.7
СЗ 2
{3}
10 км 1/1 600 м
[Cu med, cong Ac trans]
+14.2 +12.5 90 +14 +14 тепло 1019.6 1018.6 +20.6 3
С 1
{3}
н/о н/о +12.7 +11.3 91 +13 +13 тепло 1020.4 1019.8
нст 2
{4}
н/о н/о +12.4 +10.8 90 +12 +12 тепло 1020.5 1020.0
С 2
{4}
н/о н/о +12.1 +10.2 88 +11 +11 тепло 1019.9 1019.3
С 2
{4}
10 км 5/1 750 м
[Cu hum Ac trans]
+13.0 +10.6 85 +12 +12 тепло 1020.1 1019.1 +12.3 2.9 170
штиль 0
{4}
10 км 8/1 750 м
[Cu hum Ac trans Cs]
+18.0 +13.4 74 +18 +22 тепло 1020.3 1019.3
штиль 0
{3}
10 км 9/5 750 м
[Cu Sc Ac und Cs]
+19.4 +14.8 75 +21 +23 комфорт 1019.1 1018.1
штиль 0
{3}
10 км 9/5 540 м
[Cu Sc Ac und Cs]
+18.4 +15.5 83 +19 +19 тепло 1018.7 1017.7
штиль 0
{3}
10 км {гроза} 9/5 540 м
[Cu Sc Ac und]
+16.2 +14.1 87 +16 +16 тепло 1018.7 1017.7 +19.8
нст 1
{3}
н/о в посл. час осадки н/о +14.6 +12.5 87 +15 +15 тепло 1018.0 1017.5
нст 2
{3}
н/о {осадки} н/о +13.8 +12.5 92 +13 +13 тепло 1017.3 1016.7 0.3
ЮВ 4
{10}
н/о {осадки} н/о +20.2 +14.5 70 +23 +23 комфорт 1017.2 1016.7
штиль 0
{11}
3000 м гроза, ливневой дождь 10/6 300 м
[Cb cap Ac As]
+15.4 +14.0 91 +15 +15 тепло 1017.5 1016.5 +15.2 9 9.4 170
Ю 7
{11}
4000 м гроза, ливневой дождь 10/6 300 м
[Cb cap Ac As]
+16.8 +13.6 81 +16 +16 тепло 1018.2 1017.2
СЗ 2
{11}
5000 м в посл. час гроза {дождь} 10/6 300 м
[St Ac As]
+16.2 +14.4 89 +17 +17 тепло 1017.0 1016.0 12
ЮВ 6
{9}
6000 м дымка 9/6 600 м
[Cu Sc Ac und]
+20.8 +16.1 74 +24 +24 комфорт 1016.2 1015.3
ЮВ 6
{10}
10 км 5/5 600 м
[Sc Ac trans]
+20.4 +15.6 74 +23 +23 комфорт 1016.4 1015.5 +21.0 12
Ю 6
{10}
н/о н/о +20.6 +15.8 74 +24 +24 комфорт 1016.3 1015.7
Ю 6
{9}
н/о н/о +20.1 +15.3 74 +22 +22 комфорт 1015.4 1014.9
Ю 5
{10}
н/о н/о +20.3 +15.2 73 +23 +23 комфорт 1014.8 1014.2
ЮВ 7
{10}
10 км 9/8 600 м
[Sc Ac trans]
+20.6 +15.7 73 +23 +23 комфорт 1014.6 1013.7 +20.3 11.8 178
ЮВ 8
{11}
10 км 9/6 900 м
[Sc Ac trans Ci sp]
+22.2 +16.2 69 +26 +27 душно 1014.5 1013.6
ЮВ 7
{11}
5000 м слаб. дождь 10/8 600 м
[Cu Sc Ac As]
+20.4 +16.3 77 +23 +23 комфорт 1012.9 1012.0 0.1
ЮВ 4
{12}
2000 м гроза, ливневой дождь 10/9 180 м
[Cb cap Ac As]
+17.6 +14.3 81 +17 +17 тепло 1013.8 1012.8
штиль 0
{16}
5000 м слаб. дождь {гроза} 10/9 360 м
[St Ac As]
+15.2 +13.3 88 +15 +15 тепло 1014.4 1013.4 +22.2 20
нст 1
{3}
н/о осадки н/о +14.8 +13.4 91 +15 +15 тепло 1014.4 1013.8
нст 1
{3}
н/о {осадки} н/о +14.4 +13.0 91 +15 +15 тепло 1013.9 1013.3 3
СЗ 2
{3}
н/о н/о +13.5 +12.3 92 +13 +13 тепло 1014.2 1013.6
С 3
{3}
4000 м дымка 4/3 600 м
[Cu hum Ac cuf]
+12.4 +11.3 93 +11 +11 тепло 1015.4 1014.4 +12.3 3 22.6 168
С 6
{7}
10 км 5/1 900 м
[Cu hum Ac lent Ci fib]
+20.2 +9.1 49 +21 +22 комфорт 1015.4 1014.5
С 3
{9}
10 км 4/3 600 м
[Cu hum Ac lent Ci fib]
+17.2 +9.9 62 +17 +17 тепло 1016.0 1015.0
Местоположение метеостанции Каламата (Греция): широта 37.07 долгота 22.02 высота над уровнем моря 8 м.
В архиве по умолчанию представлена погода в Каламате за последнюю неделю. Архивные данные за месяц целиком и за предыдущие месяцы, начиная с января 2011 года, Вы можете получить, выбрав интересующий диапазон дат из раскрывающегося списка и нажав кнопку "Найти!".
*Определитесь, кто Вы:
Внимание! Время в таблицах - всемирное. Для получения местного времени необходимо прибавить поправку, которая равна 2 ч.
Смотрите также архив погоды в соседних городах и на ближайших метеорологических станциях:
Партнеры нашего сайта:      
Пояснения к столбцам:
  • Ветер - указаны скорость ветра в м/с - средняя за 10 мин, порывы в срок и между сроками (в фигурных скобках) и направление, откуда дует ветер: С - северный,
  • СВ - северо-восточный, В - восточный, ЮВ - юго-восточный, Ю - южный, ЮЗ - юго-западный, З - западный, СЗ - северо-западный.
  • Видимость - горизонтальная дальность видимости в метрах или километрах. При видимости от 1 до 10 км при отсутствии осадков обычно наблюдается дымка, при ухудшении видимости до 1 км и менее - туман. В сухую погоду видимость может ухудшаться дымом, пылью или мглою.
  • Явления - указаны атмосферные явления, наблюдавшиеся в срок или в последний час перед сроком; фигурными скобками обозначены явления, наблюдавшиеся между сроками (за 1-3 часа до срока); квадратными скобками обозначены град или гололедные отложения с указанием их диаметра в мм.
  • Облачность - указаны через наклонную черту общая и нижняя облачность в баллах и высота нижней границы облаков в метрах; квадратными скобками обозначены формы облаков: Ci - перистые, Cs - перисто-слоистые, Cc - перисто-кучевые, Ac - высококучевые, As - высокослоистые, Sc - слоисто-кучевые, Ns - слоисто-дождевые, Cu - кучевые, Cb - кучево-дождевые. Подробнее классификацию облаков см. в Атласе облаков (PDF).
  • T - Температура воздуха - температура, измеренная на высоте 2 м над землей.
  • Td - Температура точки росы - температура, при понижении до которой содержащийся в воздухе водяной пар достигнет насыщения.
  • f - Относительная влажность воздуха - влажноcть воздуха, измеренная на высоте 2 м над землей.
  • Te - Эффективная температура - температура, которую ощущает одетый по сезону человек в тени. Характеристика душности погоды. При расчете учитывается влияние влажности воздуха и скорости ветра на теплоощущения человека.
  • Tes - Эффективная температура на солнце - температура, которую ощущает человек, с поправкой на солнечный нагрев. Характеристика знойности погоды. Зависит от высоты солнца над горизонтом, облачности и скорости ветра. Ночью, в пасмурную погоду, а также при ветре 12 м/с и более поправка равна нулю.
  • P - Атмосферное давление - приведенное к уровню моря атмосферное давление.
  • Po - Атмосферное давление - измеренное на уровне метеостанции атмосферное давление.
  • Tmin - Минимальная температура - минимум температуры воздуха на высоте 2 м над землей.
  • Tmax - Максимальная температура - максимум температуры воздуха на высоте 2 м над землей.
  • R - Количество осадков - Количество выпавших осадков за период времени, мм. При наведении курсора мыши на число - период времени, за который выпало указанное количество осадков.
  • R24 - Количество осадков - Количество выпавших осадков за 24 часа, мм.
  • S - Снежный покров - Высота снежного покрова, см. При наведении курсора мыши на число - состояние снежного покрова и степень покрытия местности в баллах.